Location: Frankfurt+(oder)
(51.7984°N, 12.2168°E)
Time: 20:32:03
(UTC+01:00)

Tiangong 2 - Visible Passes

Search period start: 19 January 2018 00:00
Search period end: 29 January 2018 00:00
Orbit: 384 x 390 km, 42.8° (Epoch: 18 January)

Date Brightness Start Highest point End Pass type
(mag) Time Alt. Az. Time Alt. Az. Time Alt. Az.
19 Jan 3.9 07:14:56 10° SSW 07:16:47 14° S 07:18:38 10° SE visible
20 Jan 4.0 06:17:02 10° S 06:18:20 12° SSE 06:19:39 10° SE visible
21 Jan 3.7 06:53:49 10° SW 06:55:54 16° S 06:57:59 10° SE visible
22 Jan 3.6 05:56:28 13° S 05:57:25 15° S 05:59:17 10° SE visible
23 Jan 3.5 06:32:52 10° SW 06:35:00 17° S 06:37:08 10° SE visible
24 Jan 3.5 05:36:49 16° SSE 05:36:49 16° SSE 05:38:35 10° SE visible
24 Jan 3.7 07:10:51 10° SW 07:12:33 14° SSW 07:14:15 10° SSE visible
25 Jan 3.4 06:13:04 14° SSW 06:14:03 16° S 06:16:04 10° SSE visible
26 Jan 4.0 05:17:02 13° SSE 05:17:02 13° SSE 05:17:40 10° SE visible
26 Jan 3.8 06:50:43 10° SW 06:51:32 11° SSW 06:52:23 10° S visible
27 Jan 3.6 05:53:16 13° S 05:53:16 13° S 05:54:43 10° SSE visible
